Location: Borojevi?i
(45.0486°N, 16.2297°E)
Time: 06:04:10
(UTC+00:00)

CENTAUR R/B - Pass Details

Date: 08 August 2020
Orbit: 756 x 1432 km, 63.4° (Epoch: 19 September)

Event Time Altitude Azimuth Distance (km) Brightness Sun altitude
Exits shadow 21:04:50 44° 189° (S) 1,260 2.7 -23.7°
Maximum altitude 21:06:46 69° 122° (ESE) 1,031 2.4 -23.9°
Drops below altitude 10° 21:13:38 10° 41° (NE) 2,967 5.2 -24.5°
Sets 21:16:34 0° 40° (NE) 4,036 6.0 -24.7°
